Location: Cuzcurrita-R�o Tir�n
(42.5415°N, 2.9642°W)
Time: 18:39:33
(UTC+00:00)

CZ-2C R/B - Pass Details

Date: 17 January 2021
Orbit: 785 x 870 km, 98.2° (Epoch: 03 March)

Event Time Altitude Azimuth Distance (km) Brightness Sun altitude
Exits shadow 20:24:44 38° 278° (W) 1,282 3.9 -36.1°
Drops below altitude 10° 20:29:20 10° 225° (SW) 2,500 5.5 -36.9°
Sets 20:31:51 0° 217° (SW) 3,439 6.2 -37.4°
